Fountain Dale, PA

7:01 AM EDT on August 17, 2017 (GMT -0400)
Fountain Dale

Weather History for KRYT - September, 2013

Change the Weather History Date:

Wednesday, September 11, 2013

  Actual Average (KHGR) Record (KHGR)
Temperature  
Mean Temperature 86 °F -  
Max Temperature 96 °F 76 °F 92 °F (2013)
Min Temperature 75 °F 57 °F 47 °F (2012)
Cooling Degree Days 21    
Growing Degree Days 36 (Base 50)    
Moisture  
Dew Point 70 °F    
Average Humidity 60    
Maximum Humidity 76    
Minimum Humidity 43    
Precipitation  
Precipitation 0.00 in - - ()
Sea Level Pressure  
Sea Level Pressure 30.03 in    
Wind  
Wind Speed 2 mph (WSW)    
Max Wind Speed 9 mph    
Max Gust Speed -    
Visibility 8 miles    
Events Thunderstorm    
Averages and records for this station are not official NWS values.
T = Trace of Precipitation, MM = Missing Value Source: NWS Daily Summary

Daily Weather History Graph

Daily Weather History Graph

Search for Another Location

Airport or City:

Trip Planner

Search our weather history database for the weather conditions in past years. The results will help you decide how hot, cold, wet, or windy it might be!

Date:

Astronomy

Sep. 11, 2013 Rise Set
Actual Time 6:47 AM EDT 7:24 PM EDT
Civil Twilight 6:20 AM EDT 7:51 PM EDT
Nautical Twilight 5:47 AM EDT 8:23 PM EDT
Astronomical Twilight 5:14 AM EDT 8:56 PM EDT
Moon 1:12 PM EDT (9/11) 11:19 PM EDT (9/11)
Length of Visible Light 13h 31m
Length of Day
12h 37m
Waxing Crescent, 38% of the Moon is Illuminated
Sep 11
Waxing Crescent
Sep 12
First Quarter
Sep 19
Full
Sep 26
Last Quarter
Oct 4
New

Hourly Weather History & Observations

Time (EDT) Temp. Heat Index Dew Point Humidity Pressure Visibility Wind Dir Wind Speed Gust Speed Precip Events Conditions
9:53 AM 86.0 °F 91.5 °F 71.1 °F 61% 30.11 in 8.0 mi Calm Calm - N/A   Clear
10:53 AM 89.1 °F 95.0 °F 71.1 °F 55% 30.11 in 8.0 mi Calm Calm - N/A   Clear
11:53 AM 91.9 °F 99.5 °F 72.0 °F 52% 30.09 in 8.0 mi Variable 4.6 mph - N/A   Clear
12:53 PM 91.9 °F 98.4 °F 71.1 °F 50% 30.08 in 8.0 mi Calm Calm - N/A   Mostly Cloudy
1:53 PM 93.9 °F 100.8 °F 71.1 °F 47% 30.04 in 8.0 mi Variable 3.5 mph - N/A   Partly Cloudy
2:53 PM 95.0 °F 101.3 °F 70.0 °F 44% 30.01 in 9.0 mi WSW 6.9 mph - N/A   Clear
3:53 PM 95.0 °F 100.7 °F 69.1 °F 43% 29.99 in 9.0 mi WSW 9.2 mph - N/A   Scattered Clouds
4:53 PM 95.0 °F 100.7 °F 69.1 °F 43% 29.98 in 9.0 mi WSW 4.6 mph - N/A   Partly Cloudy
5:53 PM 91.0 °F 96.6 °F 70.0 °F 50% 29.99 in 8.0 mi WSW 4.6 mph - N/A   Clear
6:53 PM 84.9 °F 90.7 °F 72.0 °F 65% 29.99 in 7.0 mi Calm Calm - N/A   Clear
7:12 PM 84.2 °F 89.6 °F 71.6 °F 66% 30.04 in 6.0 mi Calm Calm - N/A Thunderstorm Unknown
7:27 PM 82.4 °F 87.2 °F 71.6 °F 70% 30.05 in 6.0 mi Calm Calm - N/A   Haze
7:35 PM 82.4 °F 87.2 °F 71.6 °F 70% 30.04 in 7.0 mi Calm Calm - N/A Thunderstorm Thunderstorm
7:53 PM 82.0 °F 86.7 °F 72.0 °F 71% 30.00 in 6.0 mi Calm Calm - N/A   Haze
8:13 PM 84.2 °F 88.4 °F 69.8 °F 62% 30.06 in 8.0 mi Calm Calm - N/A Thunderstorm Thunderstorm
8:29 PM 84.2 °F 87.3 °F 68.0 °F 58% 30.06 in 10.0 mi Calm Calm - N/A   Mostly Cloudy
8:51 PM 82.4 °F 85.4 °F 68.0 °F 62% 30.06 in 10.0 mi Calm Calm - N/A Thunderstorm Thunderstorm
8:53 PM 82.9 °F 85.8 °F 68.0 °F 60% 30.01 in 10.0 mi Calm Calm - N/A Thunderstorm Thunderstorm
9:10 PM 80.6 °F 83.2 °F 68.0 °F 65% 30.06 in 10.0 mi Calm Calm - N/A   Clear
9:53 PM 79.0 °F - 68.0 °F 69% 30.00 in 9.0 mi Calm Calm - N/A   Partly Cloudy
10:53 PM 77.0 °F - 68.0 °F 74% 29.99 in 9.0 mi Calm Calm - N/A   Clear
11:53 PM 75.9 °F - 68.0 °F 76% 29.98 in 8.0 mi Calm Calm - N/A   Partly Cloudy